Lid_Strength_Index
2 2 4 4 10 11 14 12 10 10 10 7 6 7 8 8 10 12 3 1 0 0 -0 -0 -1 -1 -2 -2 -2 -2 -1 -1 -2 -1 -2 -2 -2 -2 -2 -2 -2 -2 -2 -2 -2 -2 -2 -2 -2
3 2 5 7 13 16 14 11 10 9 7 6 6 7 8 10 5 5 3 1 0 -0 -0 -0 -1 -1 -2 -2 -2 -2 -2 -1 -2 -1 -2 -2 -2 -2 -2 -2 -2 -2 -2 -2 -2 -2 -2 -1 -1
5 4 8 10 13 15 14 11 10 8 6 7 8 6 7 8 5 4 2 1 1 0 -0 -0 -1 -1 -2 -1 -1 -1 -1 -2 -2 -1 -2 -2 -2 -2 -2 -2 -2 -2 -2 -2 -2 -2 -2 -2 -1
7 8 10 12 14 11 11 9 9 8 7 7 7 9 6 3 4 3 1 1 1 0 -0 -0 -1 -2 -2 -1 -1 -1 -1 -2 -2 -1 -2 -2 -2 -2 -2 -2 -2 -2 -2 -2 -2 -2 -1 -1 -1
8 10 13 15 12 10 9 8 9 8 8 8 7 9 8 4 2 2 1 1 2 0 -0 -0 -1 -1 -1 -1 -1 -1 -1 -2 -2 -2 -2 -2 -2 -2 -2 -2 -2 -2 -2 -2 -2 -1 -1 -0 -0
10 11 15 16 12 10 9 9 9 7 7 8 8 8 8 3 3 2 1 1 1 0 -0 -0 1 0 -1 -1 -1 -1 -1 -2 -2 -2 -2 -2 -2 -2 -2 -2 -2 -2 -2 -2 -1 -1 -0 0 0
11 12 14 15 13 12 9 8 9 8 8 8 6 9 8 5 3 2 2 1 0 -0 -0 -0 -0 0 1 0 -0 -1 -1 -1 -2 -2 -2 -1 -2 -2 -2 -2 -2 -2 -1 -1 -0 -0 -0 0 0
9 10 13 13 13 12 9 9 8 8 7 5 5 9 9 4 3 3 2 1 1 0 0 -0 0 -0 -0 0 1 0 -0 -1 -1 -1 -1 0 -0 -1 -1 -1 -1 -1 -0 0 1 1 1 1 1
7 12 14 12 12 11 9 10 8 7 7 7 6 6 5 3 3 4 2 2 1 1 0 -0 0 0 0 0 1 2 1 0 0 0 1 1 0 0 1 0 -1 -2 -1 -0 0 1 1 0 1
10 12 12 9 9 10 9 10 9 9 8 9 8 5 3 3 3 4 4 4 3 2 1 0 0 0 1 0 2 1 1 1 1 0 1 1 1 1 1 2 0 -1 -1 -1 -1 -0 -0 1 2
10 12 10 8 8 8 9 10 9 10 10 7 8 6 4 4 4 4 4 3 3 2 1 1 0 0 1 1 2 2 1 1 1 1 2 2 2 2 2 2 1 1 2 1 1 1 1 2 2
14 11 9 8 7 7 9 9 9 10 9 7 5 5 5 5 4 4 4 3 3 2 2 1 0 1 1 2 1 1 1 2 2 2 2 3 3 3 3 3 2 2 2 2 3 2 2 2 1
13 13 12 11 10 9 8 9 9 10 8 6 5 5 5 5 4 4 3 4 3 3 2 1 1 1 1 1 1 1 1 1 2 2 2 2 3 3 3 3 3 3 3 2 3 3 2 2 2
13 14 13 11 10 10 10 9 9 9 8 6 6 6 5 5 4 4 4 4 4 2 2 1 1 1 0 1 1 0 1 1 1 2 2 2 2 3 3 3 3 3 3 2 2 3 3 2 2
12 15 14 13 11 11 8 10 10 7 7 7 6 6 5 5 4 4 3 3 4 3 1 1 1 1 1 1 1 0 0 0 0 1 1 1 2 3 3 3 3 2 2 2 3 3 2 2 2
15 15 17 14 12 11 9 13 9 7 8 8 8 6 6 5 4 3 3 3 4 4 2 1 1 1 1 1 1 0 0 0 0 0 1 1 1 2 3 2 3 2 3 3 3 3 3 3 2
18 20 18 17 13 14 15 17 12 7 7 8 9 9 6 6 4 4 3 2 3 3 2 2 1 1 1 1 0 0 0 -0 -0 -0 1 1 1 1 2 2 2 2 2 3 3 3 3 3 2
21 20 19 19 15 13 16 18 15 11 13 13 12 11 10 9 5 4 3 2 2 3 2 1 1 1 1 1 1 1 0 0 -0 -0 0 1 1 2 1 2 2 2 2 2 2 2 2 2 2
18 19 19 16 14 15 16 17 16 15 14 14 13 12 12 11 7 3 3 2 2 2 4 2 2 2 1 2 2 2 2 1 0 0 1 1 1 1 1 1 2 2 2 2 1 1 2 2 1
16 18 18 15 13 14 15 17 16 15 15 14 13 12 11 10 9 7 4 3 3 2 3 3 2 2 1 1 1 1 1 1 0 1 1 1 1 1 1 2 2 2 2 2 1 1 2 1 1
15 16 15 15 13 13 15 17 17 14 14 12 12 12 11 10 10 10 7 4 3 3 3 3 2 2 2 1 1 2 1 1 1 2 2 1 1 1 1 1 1 1 1 1 1 1 1 3 2
16 12 12 13 14 19 14 22 16 14 15 14 13 12 12 11 10 8 7 7 3 3 2 3 3 3 2 1 2 2 2 3 2 1 1 2 1 1 1 1 1 1 1 1 1 1 1 2 3
15 11 12 12 13 16 17 20 19 15 15 14 13 11 10 9 9 9 7 6 5 2 2 3 3 3 2 2 2 2 2 2 1 1 1 2 2 1 1 1 1 1 1 1 1 1 1 1 2
11 13 13 13 14 23 17 18 19 17 14 13 12 11 10 10 10 10 8 6 5 3 3 3 3 2 2 2 2 2 3 3 2 2 2 2 2 1 1 1 0 1 1 1 1 1 1 2 2
13 17 23 25 25 22 15 16 17 13 12 12 10 10 10 10 10 9 9 9 7 6 5 2 3 3 2 3 2 2 2 3 3 2 2 2 2 3 2 1 2 2 2 2 2 2 3 3 3
16 17 22 27 23 20 14 18 16 11 11 9 8 9 10 10 9 10 9 9 9 8 8 7 4 3 2 2 2 3 2 2 2 2 1 2 2 3 4 5 4 4 5 5 5 5 6 7 7
16 22 15 19 17 21 17 15 13 11 11 11 10 10 11 11 11 10 9 9 9 9 9 9 7 5 2 2 2 2 3 3 2 2 1 2 4 5 6 6 7 7 7 8 8 8 8 8 8
15 14 20 20 27 24 19 18 16 13 12 11 11 11 11 10 10 9 8 9 9 9 9 9 8 7 6 2 2 2 2 2 3 4 5 6 7 8 8 8 8 9 9 8 8 9 10 10 10
17 19 20 21 20 23 23 20 14 12 11 12 12 11 12 11 11 9 9 8 8 9 10 10 9 8 8 7 3 4 5 6 6 7 7 7 8 9 9 9 9 9 11 10 10 11 11 12 13
16 17 17 22 23 20 20 21 11 10 10 11 12 11 11 11 11 11 10 9 8 9 10 10 10 9 9 9 7 6 6 7 8 8 9 9 9 9 9 9 11 12 12 11 12 12 13 13 14